THORAD AGENA D DEB, 14469

Orbit data source: Space-Track

THORAD AGENA D DEB, 14469 is space debris in SSO originally from a launch on Wed, 08 Apr 1970 UTC launched from the Air Force Western Test Range (AFWTR). Debris objects in space refer to the collection of defunct objects orbiting the Earth. Examples of debris include non-operational satellites, rocket bodies, and fragments generated from explosions, collisions, or faulty payload assembly.

Loading next visibility...
Identifier
14469, 1970-025NV
Orbit
SSO
Country
Flag of USUS
Related business
Manufacturer
Unknown
Mission
Spacecraft
Bus & Motor
Unknown
Mass
Unknown
Launch date (UTC)
1970-04-08 (56 years ago)
Launch vehicle
Unknown
Launch site
Air Force Western Test Range (AFWTR)
Object type
Payload
Rocket body
Debris
Shape & HBR
Unknown shape, 1.1 m
Radar Cross Section
Small (<0.1 m²)

Expand to show TLE details & history
Last TLE update: 18 hours ago

TLE from 18 hours ago
0 THORAD AGENA D DEB
1 14469U 70025NV  25299.28754241  .00000548  00000-0  15035-2 0  9991
2 14469 101.6023 204.8304 0271466 294.7007 190.3063 13.07350569115340
Epoch: 2025-10-26T06:54Z
TLE epoch observation values (Epoch: 2025-10-26T06:54:03.664Z)
Latitude
53.95562°
Longitude
-97.28589°
Altitude
1,445.607 km
Speed
7.048 km/s
True Right ascension
02h 44m 32s
True Declination
53° 48' 23"
Sunlit
Object was in full shadow at epoch
Visualization orbit readout
Latitude
Unknown
Longitude
Unknown
Altitude
Unknown
Speed
Unknown
Apparent Right ascension
Unknown
Apparent Declination
Unknown
Sunlit
N/A
Visualization observer readout
Local Sidereal Time
20:14:42
Azimuth
Unknown
Elevation
Unknown
Doppler factor
Unknown
Orbital elements
Apogee altitude
1,437.445 km
Perigee altitude
1,024.327 km
Semi-major axis
7,609.023 km
Eccentricity
0.02715
Inclination
101.6023°
RAAN
204.8304°
Arg. of periapsis
294.7007°
True anomaly
189.76776°
Mean anomaly
190.3063°
Eccentric anomaly
190.03527°
Mean motion
3.27002 °/min
Orbital period
110.09 mins
BSTAR
0.0015035
Loading maneuver chart data...
Computing Atmospheric mass density...

Documentation

Showing up to 5 results
|